[[{"header":{"parameterUnit":"m.s-1","parameterCategory":1,"la1":30.2991,"la2":30.254,"lo1":-89.0895,"lo2":-89.0444,"dy":0.0017,"dx":0.0017,"nx":28,"ny":28,"refTime":"2025-06-02T21:00:00:Z","depth":0,"parameterNumber":2,"parameterNumberName":"U-component_of_WINDS"},"data":[0,0,0,0,0,0,0,0,0,0,0,0,0,0,0,0,0,0,0,0,0,0,0,0,0,0,0,0,0,0,0,0,0,0,0,0,0,0,0,0,0,0,0,0,0,0,0,0,0,0,0,0,0,0,0,0,0,0,-5.2313,-5.2314,0,-5.2417,-5.2419,-5.242,-5.2393,-5.2391,-5.2389,-5.2387,-5.2492,-5.2496,-5.2501,0,0,0,0,0,0,0,0,0,0,0,0,0,-5.2087,-5.2092,-5.2313,-5.2314,-5.2316,-5.2417,-5.2419,-5.242,-5.2394,-5.2391,-5.2389,-5.2386,-5.249,-5.2496,-5.2501,0,0,0,0,0,0,0,0,0,0,0,0,0,-5.2188,-5.2093,-5.2313,-5.2315,-5.2316,-5.2417,-5.2419,-5.2421,-5.2394,-5.2391,-5.2388,-5.2385,-5.2488,-5.2495,-5.2502,-5.2607,0,0,-5.2523,-5.2526,0,0,0,0,0,0,0,0,-5.2182,-5.2196,-5.2313,-5.2315,-5.2316,-5.2389,-5.2377,-5.2483,-5.2395,-5.2364,-5.2387,-5.2384,-5.246,-5.2469,-5.2495,-5.2612,-5.2616,-5.2524,-5.2528,-5.2531,-5.2533,0,0,0,0,0,0,0,-5.2175,-5.2191,-5.2354,-5.2315,-5.2317,-5.2309,-5.232,-5.2397,-5.2428,-5.2367,-5.2365,-5.2378,-5.246,-5.2489,-5.2497,-5.2618,-5.2524,-5.253,-5.2534,-5.2537,-5.2823,-5.2826,0,0,0,0,0,0,-5.2167,-5.2186,-5.2351,-5.2357,-5.224,-5.2316,-5.2328,-5.2369,-5.2427,-5.2433,-5.238,-5.2376,-5.2478,-5.2489,-5.2501,-5.2625,-5.2531,-5.2538,-5.2542,-5.282,-5.2824,-5.2827,0,0,0,0,0,0,-5.2163,-5.2182,-5.2347,-5.2271,-5.2292,-5.2323,-5.2369,-5.2373,-5.2401,-5.2437,-5.2442,-5.2404,-5.2476,-5.2491,-5.258,-5.2629,-5.2541,-5.2547,-5.2816,-5.2821,-5.2826,-5.2876,0,0,0,0,0,0,-5.2156,-5.2181,-5.2222,-5.2272,-5.2296,-5.2425,-5.2372,-5.2377,-5.2413,-5.2409,-5.2461,-5.2466,-5.2475,-5.257,-5.2587,-5.2637,-5.2553,-5.2811,-5.2818,-5.2824,-5.287,-5.2882,-5.2892,0,0,0,0,0,-5.2148,-5.2232,-5.2224,-5.2244,-5.2348,-5.2428,-5.2441,-5.245,-5.2418,-5.2458,-5.2481,-5.2465,-5.2621,-5.2579,-5.2599,-5.2651,-5.2808,-5.2816,-5.2823,-5.2865,-5.288,-5.2892,0,0,0,0,0,0,-5.2185,-5.2238,-5.223,-5.2333,-5.2376,-5.2423,-5.2475,-5.2465,-5.2518,-5.2512,-5.252,-5.2532,-5.2622,-5.2646,-5.2598,-5.2754,-5.271,-5.2722,-5.2735,-5.2749,-5.276,-5.2751,-5.2559,0,0,0,0,0,-5.2205,-5.2267,-5.231,-5.2396,-5.2418,-5.2443,-5.2478,-5.2481,-5.2526,-5.2544,-5.2574,-5.2618,-5.2676,-5.2715,-5.2771,-5.2875,-5.2884,-5.292,-5.2931,-5.294,-5.2949,-5.3003,-5.3019,-5.2852,-5.2852,-5.2852,0,0,-5.2247,-5.2284,-5.2322,-5.2404,-5.2438,-5.25,-5.2458,-5.2527,-5.2572,-5.2554,-5.2639,-5.2663,-5.2712,-5.2809,-5.2853,-5.2831,-5.2998,-5.295,-5.2957,-5.2961,-5.3013,-5.3029,-5.3043,-5.2857,-5.2857,-5.2856,0,0,-5.2354,-5.2389,-5.2464,-5.2499,-5.2551,-5.2567,-5.2585,-5.2634,-5.2649,-5.2735,-5.2722,-5.2777,-5.2879,-5.2913,-5.2944,-5.3065,-5.3051,-5.3084,-5.3141,-5.3194,-5.3207,-5.3218,-5.3258,-5.3273,-5.3093,-5.3093,-5.3094,0,-5.2399,-5.2493,-5.2503,-5.2572,-5.2608,-5.2595,-5.267,-5.2703,-5.2771,-5.2795,-5.2771,-5.2897,-5.293,-5.3033,-5.3062,-5.3089,-5.3108,-5.3076,-5.3204,-5.3216,-5.3227,-5.3265,-5.3281,-5.3097,-5.3096,-5.3096,-5.3096,0,-5.2544,-5.261,-5.2664,-5.2729,-5.2772,-5.2843,-5.2862,-5.2904,-5.2904,-5.2922,-5.3009,-5.3048,-5.311,-5.3136,-5.3136,-5.3239,-5.3224,-5.3202,-5.3157,-5.3246,-5.3282,-5.3297,-5.3102,-5.31,-5.3099,-5.3099,0,0,-5.2675,-5.2746,-5.2765,-5.2794,-5.2851,-5.2901,-5.2972,-5.3034,-5.3068,-5.3116,-5.3174,-5.326,-5.324,-5.3276,-5.328,-5.3327,-5.3417,-5.3299,-5.3301,-5.3317,-5.3529,-5.3542,-5.356,-5.3409,-5.3412,-5.3415,-5.3524,0,-5.2785,-5.2909,-5.292,-5.3032,-5.3091,-5.3081,-5.3142,-5.3183,-5.3202,-5.3254,-5.3275,-5.3335,-5.3306,-5.3327,-5.3373,-5.3396,-5.3459,-5.3389,-5.3461,-5.3463,-5.3445,-5.3579,-5.3594,-5.3695,-5.3538,-5.3541,-5.3543,0,-5.2929,-5.2981,-5.3098,-5.3145,-5.3171,-5.3226,-5.3283,-5.3334,-5.338,-5.339,-5.343,-5.3428,-5.3499,-5.3454,-5.3551,-5.3503,-5.3533,-5.3549,-5.3553,-5.3558,-5.3506,-5.3584,-5.3728,-5.3742,-5.3566,-5.3564,-5.3562,0,-5.3009,-5.3109,-5.3191,-5.3217,-5.3275,-5.3313,-5.3339,-5.3382,-5.3418,-5.3468,-5.3491,-5.355,-5.358,-5.3625,-5.3638,-5.3604,-5.3734,-5.369,-5.3742,-5.3742,-5.3767,-5.3765,-5.3915,-5.3792,-5.3792,-5.3792,-5.3792,0,-5.3129,-5.32,-5.3227,-5.3278,-5.3357,-5.3369,-5.3447,-5.347,-5.3509,-5.3562,-5.3558,-5.3608,-5.3624,-5.3677,-5.3688,-5.3765,-5.378,-5.3789,-5.379,-5.3788,-5.3786,-5.3805,-5.3797,-5.3796,-5.3795,-5.3794,-5.3794,0,-5.323,-5.3252,-5.334,-5.3388,-5.3402,-5.3458,-5.3498,-5.3546,-5.3565,-5.3633,-5.365,-5.3679,-5.3741,-5.3759,-5.3834,-5.3841,-5.3931,-5.3927,-5.3915,-5.3914,-5.3964,-5.3958,-5.4129,-5.4151,-5.4017,-5.4018,-5.4019,0,-5.3304,-5.3358,-5.3412,-5.3448,-5.3475,-5.3534,-5.3571,-5.3585,-5.3623,-5.3679,-5.372,-5.3781,-5.3831,-5.393,-5.3957,-5.4014,-5.401,-5.4066,-5.4018,-5.4013,-5.4007,-5.4002,-5.4007,-5.4074,-5.4075,-5.4077,-5.4078,0,-5.3431,-5.3439,-5.3492,-5.355,-5.3594,-5.364,-5.3684,-5.3714,-5.3734,-5.3777,-5.3841,-5.3879,-5.3955,-5.4016,-5.4073,-5.4099,-5.4091,-5.4093,-5.4107,-5.4103,-5.4093,-5.4096,-5.3936,-5.4088,-5.4087,-5.4086,-5.4086,-5.4085,-5.3519,-5.3566,-5.361,-5.367,-5.3705,-5.3746,-5.3793,-5.3817,-5.3871,-5.3934,-5.3939,-5.4007,-5.4051,-5.4127,-5.4156,-5.4209,-5.4192,-5.4214,-5.4219,-5.4223,-5.4226,-5.4087,-5.422,-5.4219,-5.4219,-5.4219,-5.4219,0,-5.3643,-5.3671,-5.3726,-5.3788,-5.3834,-5.3825,-5.3873,-5.3912,-5.3972,-5.4014,-5.4062,-5.4134,-5.4193,-5.4225,-5.4283,-5.4319,-5.4316,-5.4333,-5.4329,-5.4335,-5.4239,-5.4219,-5.4334,-5.4334,-5.4334,-5.4334,-5.4334,-5.4334,-5.3713,-5.3791,-5.3804,-5.3899,-5.3927,-5.3994,-5.4022,-5.4059,-5.4092,-5.4173,-5.4221,-5.4242,-5.428,-5.434,-5.4393,-5.4401,-5.4421,-5.4439,-5.4445,-5.4354,-5.4342,-5.433,-5.4311,-5.4444,-5.4444,-5.4536,-5.4537,-5.4537]},{"header":{"parameterUnit":"m.s-1","parameterCategory":1,"la1":30.2991,"la2":30.254,"lo1":-89.0895,"lo2":-89.0444,"dy":0.0017,"dx":0.0017,"nx":28,"ny":28,"refTime":"2025-06-02T21:00:00:Z","depth":0,"parameterNumber":3,"parameterNumberName":"V-component_of_WINDS"},"data":[0,0,0,0,0,0,0,0,0,0,0,0,0,0,0,0,0,0,0,0,0,0,0,0,0,0,0,0,0,0,0,0,0,0,0,0,0,0,0,0,0,0,0,0,0,0,0,0,0,0,0,0,0,0,0,0,0,0,3.9288,3.9288,0,3.931,3.931,3.9311,3.9244,3.9242,3.9239,3.9238,3.9258,3.926,3.9263,0,0,0,0,0,0,0,0,0,0,0,0,0,3.9184,3.9186,3.9288,3.9288,3.9288,3.931,3.931,3.9311,3.9244,3.9241,3.9239,3.9237,3.9257,3.926,3.9263,0,0,0,0,0,0,0,0,0,0,0,0,0,3.922,3.9187,3.9287,3.9258,3.9255,3.931,3.931,3.9311,3.9244,3.9241,3.9238,3.9235,3.9256,3.926,3.9263,3.9347,0,0,3.9274,3.9276,0,0,0,0,0,0,0,0,3.9218,3.9224,3.9262,3.926,3.9257,3.9271,3.9281,3.9323,3.9245,3.9248,3.9237,3.9234,3.9264,3.9267,3.9278,3.9348,3.9349,3.9275,3.9277,3.9279,3.928,0,0,0,0,0,0,0,3.9215,3.9222,3.9296,3.9262,3.9259,3.9242,3.9244,3.9289,3.9273,3.9248,3.9243,3.9247,3.9263,3.9275,3.9278,3.9349,3.9275,3.9278,3.928,3.9282,3.9489,3.9492,0,0,0,0,0,0,3.9217,3.9221,3.9296,3.9297,3.923,3.9246,3.9248,3.927,3.9273,3.927,3.9249,3.9244,3.927,3.9274,3.9279,3.9376,3.9278,3.9282,3.9284,3.9486,3.949,3.9493,0,0,0,0,0,0,3.9215,3.9225,3.9295,3.9258,3.9265,3.9251,3.9276,3.9272,3.9284,3.9274,3.927,3.9265,3.9268,3.9273,3.9331,3.9376,3.9284,3.9287,3.9482,3.9487,3.9491,3.9574,0,0,0,0,0,0,3.9213,3.9224,3.9257,3.9259,3.9267,3.9348,3.9279,3.9274,3.929,3.9283,3.9287,3.9285,3.9266,3.9326,3.9334,3.938,3.929,3.9477,3.9484,3.949,3.9567,3.9581,3.9593,0,0,0,0,0,3.9209,3.9278,3.9259,3.9268,3.9308,3.935,3.9355,3.9332,3.9295,3.9326,3.932,3.9285,3.937,3.9332,3.9341,3.9388,3.9474,3.9482,3.9489,3.9561,3.9578,3.9592,0,0,0,0,0,0,3.9281,3.9278,3.9256,3.9328,3.934,3.9339,3.9378,3.9351,3.9373,3.9365,3.9335,3.9336,3.9399,3.9399,3.9357,3.947,3.9416,3.9425,3.9467,3.9483,3.9496,3.9494,3.9293,0,0,0,0,0,3.9305,3.9341,3.9336,3.94,3.9408,3.9392,3.941,3.9392,3.9402,3.9406,3.9404,3.9415,3.9444,3.9464,3.949,3.9567,3.9566,3.9604,3.9617,3.9628,3.9636,3.9676,3.9692,3.9518,3.9517,3.9517,0,0,3.9355,3.9358,3.9383,3.9415,3.9422,3.9458,3.9397,3.9438,3.9465,3.9412,3.9466,3.9465,3.9475,3.9543,3.9572,3.9545,3.9684,3.9637,3.9646,3.9648,3.9685,3.9702,3.9717,3.9523,3.9522,3.9521,0,0,3.9466,3.9472,3.9526,3.9535,3.9546,3.9536,3.9549,3.9552,3.955,3.9604,3.9565,3.9596,3.9647,3.9655,3.9667,3.9781,3.9749,3.9791,3.9858,3.9897,3.9911,3.9923,3.9963,3.9978,3.9799,3.9799,3.9799,0,3.9526,3.9581,3.9557,3.9601,3.9616,3.9572,3.9625,3.9635,3.9654,3.9665,3.9634,3.9698,3.9701,3.977,3.9798,3.9809,3.9822,3.9789,3.9911,3.9923,3.9934,3.9972,3.9987,3.9804,3.9804,3.9803,3.9803,0,3.9655,3.9693,3.9735,3.9756,3.9776,3.9825,3.9807,3.983,3.981,3.9803,3.9858,3.9861,3.9887,3.9902,3.9883,3.9968,3.9951,3.9917,3.9861,3.9956,3.9991,4.0005,3.9811,3.9809,3.9808,3.9807,0,0,3.9809,3.9817,3.9833,3.9842,3.9852,3.9881,3.9927,3.9954,3.9974,3.9989,4.0026,4.0071,4.0039,4.0052,4.0033,4.0068,4.0158,4.0029,4.0029,4.0052,4.0251,4.0276,4.0294,4.0137,4.014,4.0142,4.025,0,3.9917,3.9998,3.9978,4.0058,4.0093,4.0052,4.0092,4.0102,4.0097,4.0125,4.0118,4.015,4.0106,4.0113,4.0146,4.014,4.0197,4.0132,4.0171,4.0173,4.0169,4.0312,4.0339,4.044,4.0264,4.0266,4.0268,0,4.0054,4.0075,4.0159,4.0164,4.0177,4.0214,4.0237,4.0265,4.0275,4.0268,4.0283,4.0258,4.0303,4.0249,4.031,4.0266,4.0281,4.0281,4.0284,4.0286,4.0225,4.0317,4.0472,4.0487,4.0289,4.0287,4.0286,0,4.0158,4.0207,4.0264,4.0273,4.028,4.0306,4.031,4.0318,4.0335,4.0355,4.0365,4.039,4.0403,4.0422,4.0403,4.0366,4.0467,4.0412,4.0462,4.0463,4.0484,4.0483,4.0643,4.0496,4.0496,4.0495,4.0495,0,4.028,4.0332,4.031,4.0345,4.0403,4.0379,4.0436,4.0435,4.0442,4.0475,4.0441,4.0472,4.0446,4.0475,4.0461,4.0514,4.052,4.0515,4.051,4.0518,4.0518,4.0526,4.0518,4.0499,4.0499,4.0498,4.0497,0,4.0405,4.0392,4.0451,4.0453,4.0455,4.0497,4.0498,4.053,4.0522,4.0564,4.0573,4.056,4.0593,4.0577,4.061,4.06,4.0668,4.0654,4.0665,4.0661,4.0712,4.0707,4.0882,4.0904,4.0743,4.0745,4.0746,0,4.0483,4.0522,4.0529,4.0549,4.0556,4.0589,4.0606,4.0585,4.0604,4.0619,4.0649,4.0679,4.0701,4.0755,4.0748,4.0774,4.076,4.0819,4.0763,4.0769,4.0759,4.0757,4.076,4.083,4.0832,4.0834,4.0835,0,4.0623,4.0615,4.0642,4.0668,4.069,4.0709,4.0724,4.0743,4.0721,4.0745,4.0778,4.0796,4.0831,4.086,4.0882,4.0885,4.0856,4.0853,4.0866,4.0873,4.0877,4.0875,4.0695,4.0849,4.0847,4.0846,4.0845,4.0845,4.0726,4.0759,4.0769,4.0801,4.0811,4.0826,4.0856,4.0853,4.088,4.0907,4.0893,4.0931,4.094,4.0967,4.0974,4.1004,4.098,4.0998,4.1003,4.1008,4.1014,4.0874,4.1008,4.1007,4.1007,4.1006,4.1006,0,4.0864,4.0868,4.0898,4.0921,4.0946,4.0918,4.0934,4.0956,4.0991,4.1003,4.1026,4.1064,4.1093,4.1089,4.1115,4.1139,4.1127,4.1146,4.1144,4.1145,4.1035,4.1021,4.1156,4.1156,4.1156,4.1156,4.1156,4.1156,4.0938,4.0993,4.0986,4.1045,4.1049,4.1087,4.1099,4.1113,4.1122,4.1166,4.119,4.1188,4.1193,4.1219,4.1244,4.1242,4.1253,4.1278,4.1271,4.1168,4.1153,4.1139,4.1125,4.128,4.1281,4.1378,4.1379,4.138]}]]